Hourly Data Report for October 14, 2014

All times are specified in Local Standard Time (LST). Add 1 hour to adjust for Daylight Saving Time where and when it is observed.

TORONTO INTL A
ONTARIO

43°40'36.000" N
79°37'50.000" W
173.40 m
6158731
71624
YYZ

Download Data

Hourly Data (October 2014)
Hourly Data Report for October 14, 2014
Temp Definition
°C
Dew Point Temp Definition
°C
Rel Hum Definition
%
Wind Dir Definition
10's deg

Wind Spd Definition
km/h
Visibility Definition
km
Stn Press Definition
kPa
Hmdx Definition


Wind Chill Definition


Weather Definition


TIME
00:00 Legend Double Dagger 14.7 13.6 93 12 9 24.1 99.35     LegendNANA
01:00 Legend Double Dagger 15.1 13.8 92 12 10 24.1 99.30     Mainly Clear
02:00 Legend Double Dagger 15.4 14.0 91 12 11 16.1 99.26     LegendNANA
03:00 Legend Double Dagger 15.6 14.0 90 13 14 16.1 99.21     LegendNANA
04:00 Legend Double Dagger 15.2 13.6 90 13 10 16.1 99.18     Mostly Cloudy
05:00 Legend Double Dagger 14.6 13.0 90 15 8 16.1 99.17     LegendNANA
06:00 Legend Double Dagger 14.7 12.9 89 13 10 24.1 99.16     LegendNANA
07:00 Legend Double Dagger 15.5 13.4 87 12 12 24.1 99.14     Mostly Cloudy
08:00 Legend Double Dagger 17.3 14.1 81 13 9 24.1 99.12     LegendNANA
09:00 Legend Double Dagger 18.5 14.7 78 13 13 24.1 99.09     LegendNANA
10:00 Legend Double Dagger 19.8 15.3 75 14 16 24.1 99.06     Mostly Cloudy
11:00 Legend Double Dagger 21.0 15.6 71 16 16 24.1 99.02 25   LegendNANA
12:00 Legend Double Dagger 20.5 16.0 75 17 12 24.1 99.00 25   Rain
13:00 Legend Double Dagger 20.1 15.6 75 17 8 24.1 98.91     Cloudy
14:00 Legend Double Dagger 20.5 16.0 75 13 7 24.1 98.85 25   LegendNANA
15:00 Legend Double Dagger 22.1 16.2 69 13 8 24.1 98.82 27   LegendNANA
16:00 Legend Double Dagger 21.8 16.4 71 12 8 24.1 98.78 27   Cloudy
17:00 Legend Double Dagger 21.1 16.4 74 10 13 24.1 98.72 26   LegendNANA
18:00 Legend Double Dagger 21.9 15.8 68 12 21 24.1 98.75 26   LegendNANA
19:00 Legend Double Dagger 21.0 16.5 75 14 19 24.1 98.78 26   Rain Showers
20:00 Legend Double Dagger 19.8 16.3 80 15 12 24.1 98.75     LegendNANA
21:00 Legend Double Dagger 19.8 16.1 79 12 10 24.1 98.77     LegendNANA
22:00 Legend Double Dagger 19.9 16.6 81 9 10 24.1 98.75     Cloudy
23:00 Legend Double Dagger 20.5 16.6 78 12 14 19.3 98.73 26   Rain Showers

Notes on Data Quality.

Legend

  • E = Estimated
  • M = Missing
  • NA = Not Available
  • ‡ = Partner data that is not subject to review by the National Climate Archives
Date modified: